[[{"header":{"parameterUnit":"m.s-1","parameterCategory":1,"la1":30.2991,"la2":30.254,"lo1":-89.0895,"lo2":-89.0444,"dy":0.0017,"dx":0.0017,"nx":28,"ny":28,"refTime":"2025-08-27T03:00:00:Z","depth":0,"parameterNumber":2,"parameterNumberName":"U-component_of_WINDS"},"data":[0,0,0,0,0,0,0,0,0,0,0,0,0,0,0,0,0,0,0,0,0,0,0,0,0,0,0,0,0,0,0,0,0,0,0,0,0,0,0,0,0,0,0,0,0,0,0,0,0,0,0,0,0,0,0,0,0,0,-3.4518,-3.4518,0,-3.4588,-3.4589,-3.459,-3.4471,-3.4467,-3.4463,-3.4459,-3.4532,-3.4538,-3.4543,0,0,0,0,0,0,0,0,0,0,0,0,0,-3.428,-3.4285,-3.4518,-3.4518,-3.4519,-3.4588,-3.4589,-3.459,-3.4471,-3.4467,-3.4462,-3.4457,-3.453,-3.4537,-3.4544,0,0,0,0,0,0,0,0,0,0,0,0,0,-3.4371,-3.4287,-3.4517,-3.4468,-3.4465,-3.4588,-3.4589,-3.459,-3.4472,-3.4466,-3.446,-3.4455,-3.4528,-3.4536,-3.4545,-3.4719,0,0,-3.4571,-3.4575,0,0,0,0,0,0,0,0,-3.4366,-3.4379,-3.4475,-3.4472,-3.4468,-3.4514,-3.4532,-3.4634,-3.4474,-3.447,-3.4459,-3.4452,-3.4531,-3.4539,-3.4566,-3.4723,-3.4726,-3.4572,-3.4577,-3.4581,-3.4583,0,0,0,0,0,0,0,-3.4359,-3.4376,-3.4545,-3.4476,-3.4472,-3.4443,-3.4449,-3.4551,-3.4534,-3.447,-3.4461,-3.4471,-3.4528,-3.4558,-3.4567,-3.4727,-3.4572,-3.4579,-3.4585,-3.4588,-3.503,-3.5037,0,0,0,0,0,0,-3.4359,-3.4371,-3.4543,-3.4547,-3.4401,-3.4452,-3.4459,-3.4506,-3.4532,-3.453,-3.4476,-3.4465,-3.4546,-3.4557,-3.4569,-3.4775,-3.4581,-3.4589,-3.4594,-3.5024,-3.5032,-3.5039,0,0,0,0,0,0,-3.4355,-3.4376,-3.454,-3.4457,-3.4476,-3.4463,-3.4516,-3.451,-3.454,-3.4537,-3.4534,-3.451,-3.4542,-3.4557,-3.4683,-3.4776,-3.4593,-3.46,-3.5016,-3.5026,-3.5035,-3.5189,0,0,0,0,0,0,-3.4348,-3.4375,-3.4441,-3.4459,-3.4481,-3.4654,-3.4522,-3.4516,-3.4555,-3.4541,-3.4568,-3.4566,-3.4538,-3.4671,-3.4691,-3.4784,-3.4607,-3.5008,-3.5021,-3.5032,-3.5176,-3.5203,-3.5227,0,0,0,0,0,-3.434,-3.4482,-3.4445,-3.4466,-3.4563,-3.4659,-3.4671,-3.4636,-3.4563,-3.4629,-3.4627,-3.4565,-3.4762,-3.4684,-3.4707,-3.4804,-3.5002,-3.5017,-3.5031,-3.5164,-3.5198,-3.5226,0,0,0,0,0,0,-3.4475,-3.4483,-3.4443,-3.4594,-3.4627,-3.4639,-3.4722,-3.4673,-3.4727,-3.4712,-3.4666,-3.4673,-3.4809,-3.4818,-3.4732,-3.4974,-3.487,-3.489,-3.4963,-3.4995,-3.502,-3.5015,-3.4614,0,0,0,0,0,-3.4522,-3.4599,-3.4602,-3.4736,-3.4754,-3.4736,-3.4776,-3.4746,-3.4778,-3.4791,-3.4799,-3.4833,-3.4901,-3.4948,-3.5012,-3.5176,-3.518,-3.5254,-3.5279,-3.53,-3.5318,-3.5406,-3.5439,-3.5088,-3.5088,-3.5087,0,0,-3.4621,-3.4635,-3.4686,-3.4763,-3.4785,-3.4866,-3.4748,-3.4839,-3.4898,-3.4805,-3.4925,-3.4931,-3.4966,-3.5112,-3.5176,-3.5124,-3.5416,-3.5319,-3.5336,-3.5343,-3.5425,-3.5458,-3.5487,-3.5098,-3.5096,-3.5094,0,0,-3.4842,-3.4861,-3.4974,-3.4998,-3.5032,-3.5018,-3.5046,-3.5065,-3.5066,-3.5185,-3.5117,-3.5187,-3.5307,-3.5335,-3.5365,-3.5596,-3.5541,-3.5617,-3.5751,-3.5837,-3.5864,-3.5889,-3.5972,-3.6002,-3.5635,-3.5636,-3.5636,0,-3.4961,-3.508,-3.5038,-3.5134,-3.517,-3.5088,-3.5203,-3.5228,-3.5282,-3.5309,-3.5249,-3.5398,-3.5415,-3.5567,-3.5623,-3.565,-3.568,-3.5615,-3.5864,-3.5888,-3.591,-3.5988,-3.602,-3.5645,-3.5644,-3.5643,-3.5642,0,-3.5225,-3.5308,-3.5396,-3.5449,-3.5495,-3.56,-3.5574,-3.5625,-3.559,-3.5583,-3.5705,-3.5723,-3.5789,-3.5822,-3.579,-3.5969,-3.5936,-3.5871,-3.5765,-3.5953,-3.6026,-3.6056,-3.5658,-3.5655,-3.5652,-3.565,0,0,-3.5535,-3.5563,-3.5596,-3.5619,-3.565,-3.5714,-3.5815,-3.5879,-3.5924,-3.5963,-3.6047,-3.615,-3.609,-3.6124,-3.6093,-3.6169,-3.6351,-3.6094,-3.6094,-3.6142,-3.6551,-3.66,-3.6636,-3.6314,-3.632,-3.6324,-3.6548,0,-3.5755,-3.5929,-3.5894,-3.6065,-3.6142,-3.6064,-3.6152,-3.6181,-3.6177,-3.6241,-3.6236,-3.6311,-3.6225,-3.6245,-3.6316,-3.6314,-3.6433,-3.6297,-3.6393,-3.6396,-3.6388,-3.6674,-3.6727,-3.6937,-3.6576,-3.6581,-3.6585,0,-3.6037,-3.6086,-3.6265,-3.6283,-3.6314,-3.6394,-3.6449,-3.6512,-3.6543,-3.6534,-3.6572,-3.6527,-3.6627,-3.6519,-3.6657,-3.6566,-3.6602,-3.6607,-3.6614,-3.6623,-3.6503,-3.6692,-3.7004,-3.7036,-3.6629,-3.6626,-3.6622,0,-3.6246,-3.6357,-3.6478,-3.65,-3.6525,-3.6583,-3.6596,-3.662,-3.6661,-3.671,-3.6735,-3.6795,-3.6828,-3.6876,-3.6848,-3.6772,-3.6991,-3.688,-3.6987,-3.6988,-3.7038,-3.7035,-3.7361,-3.706,-3.7059,-3.7059,-3.7058,0,-3.6497,-3.661,-3.6573,-3.6647,-3.6771,-3.6729,-3.6852,-3.6856,-3.6878,-3.6952,-3.6889,-3.696,-3.6918,-3.6986,-3.6965,-3.7082,-3.7097,-3.7094,-3.7087,-3.71,-3.7101,-3.7124,-3.7109,-3.7067,-3.7065,-3.7064,-3.7062,0,-3.6753,-3.6732,-3.6859,-3.6872,-3.6877,-3.6968,-3.6979,-3.7048,-3.7038,-3.7133,-3.7153,-3.7138,-3.7214,-3.7191,-3.7273,-3.7259,-3.7408,-3.7382,-3.7398,-3.7392,-3.75,-3.7491,-3.7854,-3.7899,-3.7568,-3.7571,-3.7573,0,-3.6915,-3.6999,-3.7021,-3.7066,-3.7083,-3.7156,-3.7197,-3.7159,-3.7204,-3.7245,-3.731,-3.7381,-3.7435,-3.756,-3.7557,-3.762,-3.7595,-3.7718,-3.7604,-3.7615,-3.7598,-3.7594,-3.7602,-3.7741,-3.7745,-3.7748,-3.7751,0,-3.7205,-3.7191,-3.7252,-3.7311,-3.7361,-3.7405,-3.7443,-3.7484,-3.7448,-3.7502,-3.7579,-3.7621,-3.7705,-3.7776,-3.7832,-3.7845,-3.7793,-3.7786,-3.7815,-3.783,-3.7836,-3.7835,-3.7461,-3.7779,-3.7776,-3.7774,-3.7772,-3.7771,-3.742,-3.7491,-3.7517,-3.7588,-3.7612,-3.7649,-3.7715,-3.7714,-3.7777,-3.7842,-3.7815,-3.7904,-3.7932,-3.8003,-3.8023,-3.8092,-3.8045,-3.8086,-3.8096,-3.8107,-3.8121,-3.7824,-3.8102,-3.8101,-3.81,-3.81,-3.8099,0,-3.7707,-3.772,-3.7785,-3.7841,-3.7896,-3.7841,-3.788,-3.793,-3.8009,-3.8039,-3.8094,-3.8183,-3.8251,-3.8253,-3.8316,-3.8371,-3.8349,-3.8389,-3.8385,-3.8389,-3.8159,-3.8129,-3.8406,-3.8406,-3.8406,-3.8406,-3.8406,-3.8406,-3.7864,-3.7982,-3.7971,-3.81,-3.8112,-3.8198,-3.8225,-3.8259,-3.8283,-3.8385,-3.8441,-3.8441,-3.846,-3.8525,-3.8585,-3.8583,-3.861,-3.866,-3.865,-3.8436,-3.8405,-3.8376,-3.8348,-3.8666,-3.8667,-3.8874,-3.8876,-3.8878]},{"header":{"parameterUnit":"m.s-1","parameterCategory":1,"la1":30.2991,"la2":30.254,"lo1":-89.0895,"lo2":-89.0444,"dy":0.0017,"dx":0.0017,"nx":28,"ny":28,"refTime":"2025-08-27T03:00:00:Z","depth":0,"parameterNumber":3,"parameterNumberName":"V-component_of_WINDS"},"data":[0,0,0,0,0,0,0,0,0,0,0,0,0,0,0,0,0,0,0,0,0,0,0,0,0,0,0,0,0,0,0,0,0,0,0,0,0,0,0,0,0,0,0,0,0,0,0,0,0,0,0,0,0,0,0,0,0,0,-4.0048,-4.0049,0,-4.0095,-4.0095,-4.0096,-4.0042,-4.004,-4.0038,-4.0037,-4.0081,-4.0084,-4.0087,0,0,0,0,0,0,0,0,0,0,0,0,0,-3.9908,-3.9911,-4.0048,-4.0049,-4.0049,-4.0095,-4.0095,-4.0096,-4.0043,-4.004,-4.0038,-4.0036,-4.008,-4.0084,-4.0088,0,0,0,0,0,0,0,0,0,0,0,0,0,-3.9963,-3.9912,-4.0048,-4.0028,-4.0027,-4.0095,-4.0095,-4.0096,-4.0043,-4.004,-4.0037,-4.0034,-4.0079,-4.0084,-4.0088,-4.0177,0,0,-4.0102,-4.0104,0,0,0,0,0,0,0,0,-3.996,-3.9968,-4.003,-4.003,-4.0028,-4.006,-4.0062,-4.0123,-4.0044,-4.0037,-4.0037,-4.0033,-4.0076,-4.0081,-4.0096,-4.0179,-4.0181,-4.0103,-4.0105,-4.0107,-4.0109,0,0,0,0,0,0,0,-3.9956,-3.9966,-4.0066,-4.0031,-4.003,-4.0015,-4.002,-4.0074,-4.0073,-4.0037,-4.0034,-4.004,-4.0075,-4.0092,-4.0097,-4.0181,-4.0102,-4.0107,-4.0109,-4.0111,-4.0336,-4.0339,0,0,0,0,0,0,-3.9955,-3.9963,-4.0065,-4.0068,-3.9986,-4.002,-4.0026,-4.0053,-4.0072,-4.0072,-4.0043,-4.0037,-4.0086,-4.0092,-4.0098,-4.0201,-4.0107,-4.0112,-4.0114,-4.0333,-4.0337,-4.034,0,0,0,0,0,0,-3.9952,-3.9965,-4.0063,-4.0015,-4.0026,-4.0026,-4.0057,-4.0055,-4.0072,-4.0076,-4.0075,-4.006,-4.0084,-4.0092,-4.0157,-4.0202,-4.0114,-4.0118,-4.0329,-4.0334,-4.0338,-4.0409,0,0,0,0,0,0,-3.9949,-3.9964,-3.9999,-4.0016,-4.0029,-4.0123,-4.006,-4.0058,-4.008,-4.0074,-4.0092,-4.0093,-4.0082,-4.0151,-4.0162,-4.0207,-4.0121,-4.0325,-4.0331,-4.0337,-4.0403,-4.0416,-4.0427,0,0,0,0,0,-3.9944,-4.0017,-4.0001,-4.0014,-4.0072,-4.0125,-4.0133,-4.012,-4.0084,-4.0118,-4.0121,-4.0092,-4.0196,-4.0158,-4.017,-4.0217,-4.0322,-4.0329,-4.0336,-4.0398,-4.0414,-4.0427,0,0,0,0,0,0,-4.0005,-4.0019,-4.0001,-4.0082,-4.0103,-4.0116,-4.0159,-4.0137,-4.0168,-4.0161,-4.0142,-4.0147,-4.0216,-4.0223,-4.018,-4.0302,-4.0253,-4.0263,-4.0295,-4.031,-4.0322,-4.0318,-4.0125,0,0,0,0,0,-4.0028,-4.0071,-4.008,-4.0151,-4.0162,-4.0159,-4.0182,-4.017,-4.019,-4.0198,-4.0206,-4.0225,-4.0262,-4.0287,-4.0321,-4.0404,-4.0406,-4.0442,-4.0454,-4.0464,-4.0473,-4.0515,-4.0531,-4.0364,-4.0364,-4.0364,0,0,-4.0076,-4.0089,-4.0117,-4.0163,-4.0178,-4.0221,-4.0167,-4.0216,-4.0247,-4.0205,-4.0267,-4.0273,-4.0294,-4.0368,-4.0401,-4.0376,-4.0519,-4.0474,-4.0482,-4.0485,-4.0524,-4.054,-4.0554,-4.0369,-4.0368,-4.0367,0,0,-4.0184,-4.02,-4.0259,-4.0275,-4.0298,-4.0295,-4.0309,-4.0326,-4.0328,-4.039,-4.0359,-4.0396,-4.046,-4.0476,-4.0492,-4.0605,-4.0579,-4.0617,-4.068,-4.0721,-4.0734,-4.0746,-4.0784,-4.0798,-4.0625,-4.0626,-4.0626,0,-4.024,-4.0306,-4.0292,-4.0342,-4.0363,-4.0328,-4.0387,-4.0402,-4.0435,-4.0449,-4.0421,-4.05,-4.0512,-4.0588,-4.0616,-4.0631,-4.0645,-4.0614,-4.0734,-4.0745,-4.0755,-4.0792,-4.0807,-4.063,-4.0629,-4.0629,-4.0629,0,-4.0372,-4.0418,-4.0463,-4.0496,-4.0522,-4.0576,-4.0569,-4.0596,-4.0582,-4.0581,-4.0644,-4.0656,-4.0692,-4.0709,-4.0696,-4.0783,-4.0767,-4.0737,-4.0686,-4.0776,-4.081,-4.0824,-4.0636,-4.0635,-4.0633,-4.0632,0,0,-4.0521,-4.0545,-4.0562,-4.0575,-4.0598,-4.0632,-4.0684,-4.0719,-4.0742,-4.0766,-4.0807,-4.0862,-4.0834,-4.0853,-4.084,-4.0877,-4.0963,-4.0842,-4.0842,-4.0863,-4.1058,-4.1079,-4.1096,-4.0947,-4.0949,-4.0951,-4.1055,0,-4.0629,-4.072,-4.0708,-4.0795,-4.0836,-4.0802,-4.0847,-4.0865,-4.0866,-4.0899,-4.0899,-4.0938,-4.0899,-4.0909,-4.0944,-4.0946,-4.1002,-4.0938,-4.0983,-4.0985,-4.0978,-4.1114,-4.1137,-4.1235,-4.1069,-4.1071,-4.1073,0,-4.0767,-4.0796,-4.0887,-4.0901,-4.0918,-4.0958,-4.0989,-4.1022,-4.104,-4.1038,-4.1058,-4.1039,-4.1089,-4.1039,-4.1106,-4.1063,-4.1081,-4.1084,-4.1087,-4.109,-4.1033,-4.1118,-4.1266,-4.128,-4.1094,-4.1092,-4.1091,0,-4.0864,-4.0925,-4.0987,-4.1,-4.1019,-4.1048,-4.1057,-4.1073,-4.1094,-4.112,-4.1133,-4.1165,-4.1182,-4.1206,-4.1195,-4.116,-4.1264,-4.1213,-4.1262,-4.1262,-4.1284,-4.1283,-4.1435,-4.1299,-4.1299,-4.1298,-4.1298,0,-4.0984,-4.1041,-4.1031,-4.1069,-4.113,-4.1115,-4.1176,-4.1181,-4.1195,-4.1232,-4.1205,-4.124,-4.1224,-4.1258,-4.1249,-4.1305,-4.1314,-4.1312,-4.1309,-4.1313,-4.1313,-4.1324,-4.1316,-4.1302,-4.1301,-4.1301,-4.13,0,-4.1103,-4.1099,-4.1163,-4.1176,-4.118,-4.1225,-4.1234,-4.1269,-4.1267,-4.1314,-4.1324,-4.1322,-4.1359,-4.1351,-4.1393,-4.1387,-4.1457,-4.1446,-4.1451,-4.1447,-4.1496,-4.1491,-4.1659,-4.1679,-4.1532,-4.1533,-4.1534,0,-4.118,-4.1222,-4.1239,-4.1262,-4.1273,-4.1311,-4.1333,-4.1319,-4.1342,-4.1366,-4.1397,-4.1433,-4.146,-4.1522,-4.1523,-4.1554,-4.1542,-4.1599,-4.1547,-4.1549,-4.1541,-4.1538,-4.1541,-4.1609,-4.1611,-4.1612,-4.1613,0,-4.1315,-4.1311,-4.1343,-4.1375,-4.1402,-4.1426,-4.1447,-4.1467,-4.1455,-4.1482,-4.1521,-4.1542,-4.1584,-4.1619,-4.1648,-4.1655,-4.1632,-4.163,-4.1642,-4.1647,-4.1647,-4.1646,-4.1477,-4.1626,-4.1624,-4.1623,-4.1623,-4.1622,-4.1414,-4.1449,-4.1466,-4.1503,-4.1518,-4.1538,-4.1571,-4.1573,-4.1605,-4.1639,-4.1629,-4.1672,-4.1687,-4.1723,-4.1734,-4.1767,-4.1745,-4.1764,-4.1769,-4.1773,-4.1778,-4.1643,-4.1772,-4.1772,-4.1772,-4.1771,-4.1771,0,-4.1546,-4.1556,-4.159,-4.162,-4.1649,-4.1625,-4.1647,-4.1672,-4.1711,-4.1728,-4.1755,-4.1799,-4.1832,-4.1835,-4.1866,-4.1892,-4.1881,-4.19,-4.1897,-4.1899,-4.1797,-4.1782,-4.1908,-4.1908,-4.1908,-4.1908,-4.1908,-4.1908,-4.1619,-4.1677,-4.1674,-4.1739,-4.1747,-4.179,-4.1804,-4.1822,-4.1835,-4.1885,-4.1913,-4.1915,-4.1926,-4.1957,-4.1986,-4.1986,-4.1998,-4.202,-4.2016,-4.192,-4.1906,-4.1893,-4.1879,-4.2023,-4.2024,-4.2115,-4.2116,-4.2117]}]]